7 * 24
多渠道服务支持
STARLINK-36857(NORAD编号68518)是美国SpaceX公司星链(Starlink)星座中的第二代低轨通信卫星,属于Gen2星座组网卫星,运行在约550公里的近地轨道。作为星链全球互联网星座的组成部分,该卫星继承了V1.5技术方案,支持激光星间链路,可实现卫星间直接通信,助力构建覆盖全球的低时延高速宽带网络。它主要为全球用户提供互联网接入服务,同时星链系统也具备潜在军事应用价值,可支持远程通信与态势感知能力,是SpaceX大规模低轨卫星部署计划的单元之一。
美国
(US)
| 数据来源 | 国际轨道数据 |
| 星历时间: | 2026-09-04T04:30:30+0800 9小时前 查看轨道信息 |
| 半长轴: | 6840.82km |
| 偏心率: | 0.0001001 |
| 轨道倾角: | 53.160° |
| 近地点辐角 | 82.746° |
| 升交点赤经 | 17.390° |
| 平近点角 | 277.366° |
| 近地点: | 461.998km |
| 远地点: | 463.368km |
| 周期: | 93.847分钟 |
| 每日圈数: | 15.344069 |